Location: The Saddle
(36.8333°N, 80.3417°W)
Time: 09:03:21
(UTC-05:00)

A-11 Canister half - Pass Details

Date: 18 December 2023
Orbit: 1512 x 1687 km, 47.2° (Epoch: 27 February)

Event Time Altitude Azimuth Distance (km) Brightness Sun altitude
Rises 21:26:53 0° 251° (WSW) 4,653 12.1 -51.0°
Reaches altitude 10° 21:29:56 10° 255° (WSW) 3,683 11.4 -51.6°
Enters shadow 21:33:45 28° 264° (W) 2,557 10.3 -52.3°
Maximum altitude 21:39:08 64° 336° (NNW) 1,698 - -53.4°
Drops below altitude 10° 21:48:42 10° 57° (ENE) 3,806 - -55.3°
Sets 21:51:55 0° 61° (ENE) 4,817 - -55.9°
